Location: Turtle Rock Observatory
(36.6913°N, 81.9708°W)
Time: 01:26:06
(UTC-04:00)

TITAN 4B R/B - Visible Passes

Search period start: 28 August 2015 00:00
Search period end: 07 September 2015 00:00
Orbit: 464 x 649 km, 57.0° (Epoch: 23 August)

Date Brightness Start Highest point End Pass type
(mag) Time Alt. Az. Time Alt. Az. Time Alt. Az.
28 Aug 3.8 22:19:56 10° N 22:22:09 15° NNE 22:22:09 15° NNE visible
29 Aug 3.5 22:16:32 10° NNW 22:19:06 18° NNE 22:19:06 18° NNE visible
30 Aug 3.2 22:13:15 10° NNW 22:16:05 23° NNE 22:16:05 23° NNE visible
31 Aug 2.8 22:10:02 10° NNW 22:13:07 29° NNE 22:13:07 29° NNE visible
01 Sep 4.0 20:30:29 10° NNE 20:30:33 10° NNE 20:30:46 10° NNE visible
01 Sep 2.4 22:06:53 10° NNW 22:10:12 38° N 22:10:12 38° N visible
02 Sep 3.7 20:26:00 10° N 20:27:52 12° NNE 20:29:48 10° NE visible
02 Sep 2.0 22:03:48 10° NW 22:07:20 52° N 22:07:20 52° N visible
03 Sep 3.5 20:22:28 10° N 20:25:08 16° NNE 20:27:48 10° ENE visible
03 Sep 1.7 22:00:46 10° NW 22:04:32 65° NW 22:04:32 65° NW visible
04 Sep 3.2 20:19:05 10° NNW 20:22:20 20° NNE 20:25:32 10° E visible
04 Sep 1.8 21:57:49 10° NW 22:01:49 57° WSW 22:01:49 57° WSW visible
05 Sep 2.8 20:15:48 10° NNW 20:19:32 26° NE 20:23:06 10° E visible
05 Sep 2.3 21:54:58 10° NW 21:59:02 39° SW 21:59:10 39° SW visible
06 Sep 2.4 20:12:36 10° NNW 20:16:39 34° NE 20:20:32 10° ESE visible
06 Sep 3.0 21:52:15 10° WNW 21:55:55 26° WSW 21:56:38 25° SW visible
